Back to catalog

IRIDE-MS1-EAG2-11

AliveScienceSSO
NORAD 68453·PAYLOAD·🇮🇹 Italy

Launched Mar 30, 2026 from Vandenberg Space Force Base

Loading…

Next Passes (next 24 hours)

TLE

FreshSource: Space-Track

Epoch: Sep 14, 2026, 15:10 UTC

1 68453U 26067AP  26257.63248078  .00006495  00000-0  30583-3 0  9993
2 68453  97.4644 215.0370 0004298  77.8896 282.2821 15.19865309 25524

Track IRIDE-MS1-EAG2-11 in real time with AllMySat

Download on the App Store